Weather History for Telluride, CO

Change the Weather History Date:

Tuesday, October 9, 2012

  Actual Average Record
Temperature  
Mean Temperature 47 °F -  
Max Temperature 59 °F 54 °F 68 °F (1996)
Min Temperature 35 °F 34 °F 26 °F (2011)
Degree Days  
Heating Degree Days 18    
Moisture  
Dew Point 17 °F    
Average Humidity 32    
Maximum Humidity 52    
Minimum Humidity 16    
Precipitation  
Precipitation 0.00 in - - ()
Sea Level Pressure  
Sea Level Pressure 30.26 in    
Wind  
Wind Speed 6 mph (South)    
Max Wind Speed 13 mph    
Max Gust Speed 23 mph    
Visibility 10 miles    
Events      
Averages and records for this station are not official NWS values.
T = Trace of Precipitation, MM = Missing Value Source: NWS Daily Summary

Daily Weather History Graph

Daily Weather History Graph

Search for Another Location

Airport:

Trip Planner

Search our weather history database for the weather conditions in past years. The results will help you decide how hot, cold, wet, or windy it might be!

Date:

Astronomy

Oct. 09, 2012 Rise Set
Actual Time 7:15 AM MDT 6:41 PM MDT
Civil Twilight 6:48 AM MDT 7:08 PM MDT
Nautical Twilight 6:18 AM MDT 7:38 PM MDT
Astronomical Twilight 5:47 AM MDT 8:09 PM MDT
Moon 1:00 AM MDT (10/9) 3:05 PM MDT (10/9)
Length of Visible Light 12h 19m
Length of Day
11h 26m
Last Quarter, 36% of the Moon is Illuminated
Oct 9
Last Quarter
Oct 15
New
Oct 21
First Quarter
Oct 29
Full
Nov 6
Last Quarter

Hourly Weather History & Observations

Time (MDT) Temp. Windchill Dew Point Humidity Pressure Visibility Wind Dir Wind Speed Gust Speed Precip Events Conditions
12:15 AM 39.2 °F 34.2 °F 12.2 °F 33% 30.24 in 10.0 mi SE 6.9 mph - N/A   Clear
12:35 AM 37.4 °F 32.8 °F 12.2 °F 36% 30.24 in 10.0 mi ESE 5.8 mph - N/A   Clear
12:55 AM 37.4 °F 32.8 °F 12.2 °F 36% 30.23 in 10.0 mi SE 5.8 mph - N/A   Clear
1:15 AM 37.4 °F 32.8 °F 12.2 °F 36% 30.23 in 10.0 mi ESE 5.8 mph - N/A   Clear
1:55 AM 37.4 °F 32.8 °F 12.2 °F 36% 30.23 in 10.0 mi SE 5.8 mph - N/A   Clear
2:15 AM 37.4 °F 32.8 °F 14.0 °F 38% 30.23 in 10.0 mi ESE 5.8 mph - N/A   Clear
2:35 AM 35.6 °F 29.9 °F 14.0 °F 41% 30.23 in 10.0 mi ESE 6.9 mph - N/A   Clear
3:15 AM 35.6 °F 30.7 °F 14.0 °F 41% 30.22 in 10.0 mi ESE 5.8 mph - N/A   Clear
3:35 AM 37.4 °F 33.8 °F 12.2 °F 36% 30.22 in 10.0 mi SE 4.6 mph - N/A   Clear
3:55 AM 35.6 °F 29.9 °F 14.0 °F 41% 30.22 in 10.0 mi ESE 6.9 mph - N/A   Clear
4:15 AM 35.6 °F 29.9 °F 15.8 °F 44% 30.22 in 10.0 mi ESE 6.9 mph - N/A   Clear
4:35 AM 35.6 °F 30.7 °F 15.8 °F 44% 30.22 in 10.0 mi ESE 5.8 mph - N/A   Clear
4:55 AM 37.4 °F 32.8 °F 14.0 °F 38% 30.23 in 10.0 mi SE 5.8 mph - N/A   Clear
5:15 AM 37.4 °F 31.4 °F 15.8 °F 41% 30.23 in 10.0 mi SE 8.1 mph - N/A   Clear
5:35 AM 37.4 °F 32.1 °F 15.8 °F 41% 30.23 in 10.0 mi ESE 6.9 mph - N/A   Clear
5:55 AM 37.4 °F 32.8 °F 15.8 °F 41% 30.24 in 10.0 mi ESE 5.8 mph - N/A   Clear
6:15 AM 35.6 °F 30.7 °F 17.6 °F 48% 30.24 in 10.0 mi SE 5.8 mph - N/A   Clear
6:35 AM 35.6 °F 32.8 °F 17.6 °F 48% 30.24 in 10.0 mi East 3.5 mph - N/A   Clear
6:55 AM 35.6 °F 29.9 °F 19.4 °F 52% 30.25 in 10.0 mi ESE 6.9 mph - N/A   Clear
7:15 AM 37.4 °F 33.8 °F 19.4 °F 48% 30.25 in 10.0 mi SE 4.6 mph - N/A   Clear
7:35 AM 37.4 °F 33.8 °F 19.4 °F 48% 30.25 in 10.0 mi ESE 4.6 mph - N/A   Clear
7:55 AM 37.4 °F - 19.4 °F 48% 30.25 in 10.0 mi Calm Calm - N/A   Clear
8:15 AM 39.2 °F 35.0 °F 19.4 °F 45% 30.26 in 10.0 mi ESE 5.8 mph - N/A   Clear
8:35 AM 39.2 °F 35.0 °F 19.4 °F 45% 30.26 in 10.0 mi SE 5.8 mph - N/A   Clear
8:55 AM 42.8 °F 40.1 °F 19.4 °F 39% 30.27 in 10.0 mi East 4.6 mph - N/A   Clear
9:15 AM 44.6 °F - 19.4 °F 37% 30.27 in 10.0 mi Calm Calm - N/A   Clear
9:35 AM 46.4 °F - 19.4 °F 34% 30.27 in 10.0 mi Calm Calm - N/A   Clear
9:55 AM 48.2 °F - 21.2 °F 34% 30.28 in 10.0 mi Calm Calm - N/A   Clear
10:15 AM 50.0 °F - 21.2 °F 32% 30.28 in 10.0 mi SW 4.6 mph - N/A   Clear
10:35 AM 51.8 °F - 21.2 °F 30% 30.28 in 10.0 mi SW 4.6 mph - N/A   Clear
10:55 AM 51.8 °F - 19.4 °F 28% 30.27 in 10.0 mi WSW 6.9 mph - N/A   Clear
11:15 AM 53.6 °F - 19.4 °F 26% 30.27 in 10.0 mi WSW 6.9 mph - N/A   Clear
11:35 AM 53.6 °F - 19.4 °F 26% 30.26 in 10.0 mi SW 6.9 mph - N/A   Clear
11:55 AM 55.4 °F - 19.4 °F 25% 30.26 in 10.0 mi WNW 3.5 mph - N/A   Clear
12:15 PM 55.4 °F - 17.6 °F 23% 30.26 in 10.0 mi WSW 12.7 mph 16.1 mph N/A   Clear
12:35 PM 55.4 °F - 19.4 °F 25% 30.26 in 10.0 mi SSW 5.8 mph - N/A   Clear
12:55 PM 57.2 °F - 19.4 °F 23% 30.25 in 10.0 mi West 3.5 mph - N/A   Clear
1:15 PM 59.0 °F - 17.6 °F 20% 30.24 in 10.0 mi WNW 9.2 mph 23.0 mph N/A   Clear
1:35 PM 57.2 °F - 17.6 °F 21% 30.24 in 10.0 mi West 9.2 mph - N/A   Clear
1:55 PM 57.2 °F - 17.6 °F 21% 30.24 in 10.0 mi West 9.2 mph 18.4 mph N/A   Clear
2:15 PM 59.0 °F - 17.6 °F 20% 30.23 in 10.0 mi West 12.7 mph 17.3 mph N/A   Clear
2:35 PM 59.0 °F - 15.8 °F 19% 30.23 in 10.0 mi WSW 10.4 mph 21.9 mph N/A   Clear
2:55 PM 59.0 °F - 14.0 °F 17% 30.23 in 10.0 mi West 12.7 mph 20.7 mph N/A   Clear
3:15 PM 59.0 °F - 15.8 °F 19% 30.23 in 10.0 mi West 10.4 mph 19.6 mph N/A   Clear
3:35 PM 59.0 °F - 17.6 °F 20% 30.23 in 10.0 mi WSW 11.5 mph 17.3 mph N/A   Clear
3:55 PM 59.0 °F - 14.0 °F 17% 30.23 in 10.0 mi West 6.9 mph 17.3 mph N/A   Clear
4:15 PM 59.0 °F - 15.8 °F 19% 30.23 in 10.0 mi WSW 10.4 mph - N/A   Clear
4:35 PM 59.0 °F - 12.2 °F 16% 30.23 in 10.0 mi West 10.4 mph 16.1 mph N/A   Clear
4:55 PM 59.0 °F - 15.8 °F 19% 30.23 in 10.0 mi West 11.5 mph 18.4 mph N/A   Clear
5:15 PM 57.2 °F - 15.8 °F 20% 30.24 in 10.0 mi West 10.4 mph - N/A   Clear
5:35 PM 55.4 °F - 17.6 °F 23% 30.24 in 10.0 mi West 11.5 mph - N/A   Clear
5:55 PM 55.4 °F - 14.0 °F 20% 30.24 in 10.0 mi West 9.2 mph - N/A   Clear
6:15 PM 55.4 °F - 14.0 °F 20% 30.25 in 10.0 mi West 8.1 mph - N/A   Clear
6:35 PM 53.6 °F - 15.8 °F 22% 30.24 in 10.0 mi WNW 3.5 mph - N/A   Clear
6:55 PM 53.6 °F - 15.8 °F 22% 30.25 in 10.0 mi West 3.5 mph - N/A   Clear
7:15 PM 53.6 °F - 17.6 °F 24% 30.26 in 10.0 mi Calm Calm - N/A   Clear
7:35 PM 51.8 °F - 15.8 °F 24% 30.26 in 10.0 mi South 3.5 mph - N/A   Clear
7:55 PM 50.0 °F - 17.6 °F 28% 30.27 in 10.0 mi Calm Calm - N/A   Clear
8:15 PM 50.0 °F - 17.6 °F 28% 30.28 in 10.0 mi Calm Calm - N/A   Clear
8:35 PM 46.4 °F 43.5 °F 17.6 °F 32% 30.28 in 10.0 mi ESE 5.8 mph - N/A   Clear
8:55 PM 46.4 °F 42.4 °F 17.6 °F 32% 30.29 in 10.0 mi ESE 8.1 mph - N/A   Clear
9:15 PM 46.4 °F 43.5 °F 17.6 °F 32% 30.30 in 10.0 mi ESE 5.8 mph - N/A   Clear
9:35 PM 44.6 °F 41.4 °F 17.6 °F 34% 30.30 in 10.0 mi SE 5.8 mph - N/A   Clear
9:55 PM 44.6 °F 42.2 °F 17.6 °F 34% 30.31 in 10.0 mi ESE 4.6 mph - N/A   Clear
10:15 PM 44.6 °F 40.2 °F 17.6 °F 34% 30.31 in 10.0 mi ESE 8.1 mph - N/A   Clear
10:35 PM 42.8 °F 40.1 °F 17.6 °F 36% 30.32 in 10.0 mi SE 4.6 mph - N/A   Clear
10:55 PM 42.8 °F 40.1 °F 17.6 °F 36% 30.32 in 10.0 mi SE 4.6 mph - N/A   Clear
11:15 PM 42.8 °F 39.3 °F 17.6 °F 36% 30.32 in 10.0 mi SE 5.8 mph - N/A   Clear
11:35 PM 42.8 °F 39.3 °F 19.4 °F 39% 30.32 in 10.0 mi SE 5.8 mph - N/A   Clear
11:55 PM 41.0 °F 37.1 °F 19.4 °F 42% 30.32 in 10.0 mi ESE 5.8 mph - N/A   Clear